Location: Bayshore Village Mobile Home Park
(26.6945°N, 81.8642°W)
Time: 21:10:09
(UTC+00:00)

GPS 2-04 Rocket1 - Pass Details

Date: 17 June 2021
Orbit: 415 x 539 km, 35.6° (Epoch: 31 July)

Event Time Altitude Azimuth Distance (km) Brightness Sun altitude
Exits shadow 08:23:23 23° 331° (NNW) 1,100 4.5 -24.5°
Maximum altitude 08:24:08 24° 350° (N) 1,050 4.5 -24.3°
Drops below altitude 10° 08:27:17 10° 46° (NE) 1,657 6.4 -23.9°
Sets 08:29:44 0° 60° (ENE) 2,509 7.5 -23.5°
